sat.trackr.live / text

‹ back to catalog

LEMUR-2-AHMED-ASRAR

NORAD 60576 · 2024-149DN

PAYLOAD ACTIVE UNKNOWN

§ Identity

Operator
Country
US
Launch date
2024-08-16
Launch site
AFWTR
Launch vehicle
Mass (kg)
RCS (m²)

Purposes: earth_obs

External: N2YO · Heavens-Above · Gunter

§ Orbital elements

Epoch: 2026-05-25T04:54:51.918048Z

Period
95.23 min
Inclination
97.6994°
Eccentricity
0.0003440
Mean motion
15.12094459 rev/d
Perigee alt
527.4 km
Apogee alt
532.2 km
Semi-major
6,908.0 km
B*
6.7343e-4
RAAN
230.0000°
Arg perigee
93.1624°
Mean anomaly
267.0000°
Rev number
9,709

§ Raw data

LEMUR-2-AHMED-ASRAR1 60576U 24149DN  26145.20476757  .00011537  00000+0  67343-3 0  99922 60576  97.6994 230.0000 0003440  93.1624 267.0000 15.12094459 97091

JSON: /api/v1/satellites/60576 · /tle

For live sub-satellite position, see the globe view (requires WebGL).

§ Visibility from observer

Set your observer location to see the next 7 days of passes ≥ 10°. The values pass through the URL so the page stays shareable.

No JS? Fill the form by hand. The geolocation button needs JavaScript.